Wetbulb
28.26 28.91 31.08 30.72 30.49 31.21 31.28 32.90 26.38 25.94 28.52 33.14 34.39 34.30 35.50 36.99 38.17 38.47 38.20 39.38 40.74 41.37 41.02 40.71 41.66 41.83 42.62 43.13 43.45 43.16 42.92 42.39 41.99 41.88 41.65 41.37 41.17 41.03 40.71 39.64 38.96 38.81 38.15 37.59
17.15 25.85 26.64 26.39 30.45 32.12 32.70 32.29 33.78 32.97 30.41 35.88 38.03 34.07 35.78 36.66 37.56 37.23 38.41 39.64 39.74 39.58 40.70 40.90 41.09 42.04 43.02 43.49 42.95 42.96 42.53 42.34 42.09 41.67 41.17 40.51 39.56 38.61 37.88 37.37 37.03 37.24 36.77 36.81
15.84 23.50 27.34 19.34 27.91 30.80 31.65 35.00 34.90 30.83 35.27 39.77 38.95 38.50 38.12 38.41 38.67 38.58 39.91 40.58 40.21 40.01 39.52 40.74 41.25 41.88 42.60 42.66 42.34 41.84 41.79 41.62 41.48 40.79 39.93 38.97 38.07 37.42 36.59 35.81 35.45 35.01 35.08 35.71
17.54 24.07 11.84 26.84 33.96 33.93 32.15 33.59 36.43 36.53 37.02 39.79 40.17 41.56 42.68 40.62 39.46 39.77 39.62 39.62 39.04 38.54 38.87 39.54 39.79 41.41 41.76 42.67 42.10 41.44 41.05 40.96 40.82 40.19 39.01 37.65 36.89 36.09 34.93 34.15 34.39 33.81 33.71 32.22
18.66 19.51 21.97 28.19 30.85 28.82 32.30 31.88 34.33 32.46 34.99 37.45 39.18 37.60 37.13 38.97 38.81 38.01 37.39 38.92 39.47 39.47 39.71 39.70 39.78 39.64 40.83 40.63 40.72 40.84 40.96 41.02 40.70 39.97 38.09 36.87 35.91 34.92 32.73 33.10 32.30 32.94 33.65 34.17
17.54 17.25 15.42 24.72 33.67 34.67 32.23 26.72 35.03 34.99 34.83 36.38 35.63 32.00 36.79 38.56 39.33 39.64 39.57 39.41 39.18 39.18 39.40 39.30 39.59 39.49 39.75 39.60 39.44 40.08 40.66 40.68 40.06 39.59 38.49 37.15 35.79 33.88 35.33 34.93 33.36 34.73 34.88 33.32
16.22 14.92 20.53 30.01 35.36 34.83 25.17 24.74 34.98 36.47 36.37 36.11 35.06 36.11 38.89 40.30 40.01 39.99 38.70 38.56 39.27 38.31 38.58 39.77 40.35 40.03 39.20 38.79 39.57 41.33 40.50 39.92 39.39 38.90 38.06 36.59 34.53 35.40 35.12 34.76 34.70 34.60 34.84 32.75
21.21 18.77 14.83 33.25 32.47 27.93 31.41 34.17 34.95 35.61 37.10 37.17 38.28 39.15 38.75 38.46 38.39 38.55 38.46 38.78 38.91 37.46 37.65 38.22 39.19 40.36 39.71 38.63 39.40 40.23 40.17 39.92 39.26 38.31 37.99 36.09 35.98 35.17 34.56 34.27 32.76 32.38 33.17 34.40
23.53 23.17 30.70 36.17 31.79 33.69 34.96 34.63 34.85 35.40 36.74 37.89 37.96 37.93 39.16 38.90 37.40 37.57 37.17 37.88 37.91 36.66 36.71 37.02 37.23 39.38 38.77 38.56 39.17 39.17 38.94 38.32 37.43 36.84 35.94 35.87 35.56 33.85 32.76 32.26 32.21 31.97 33.65 33.43
27.22 27.77 28.48 30.95 34.29 35.08 32.70 33.41 36.27 37.76 37.07 37.99 36.85 37.81 38.48 38.50 37.85 37.78 37.16 37.32 37.13 36.53 36.11 35.88 36.01 36.78 37.19 37.77 38.76 39.00 38.58 38.09 36.39 35.65 34.35 34.55 33.98 34.19 33.29 32.08 31.77 33.23 33.62 32.88
23.37 25.08 28.11 30.28 28.90 29.73 32.07 32.97 33.82 36.46 37.08 38.33 37.90 37.99 38.32 38.24 37.86 37.57 37.41 37.43 37.14 36.16 35.58 35.15 35.71 35.78 36.60 37.87 38.50 38.17 38.43 37.42 36.76 36.47 35.39 34.94 34.13 33.85 33.08 34.07 36.34 34.72 33.75 31.80
21.38 25.27 25.40 26.65 28.80 32.35 32.15 32.35 32.67 34.14 35.82 38.41 39.28 38.14 38.30 38.73 38.01 37.68 36.93 36.58 36.97 35.75 35.64 35.38 35.18 35.33 35.84 37.85 39.40 38.50 37.12 36.75 36.69 36.72 35.35 34.99 34.43 34.79 38.49 38.34 39.00 39.14 38.46 35.21
25.67 27.49 29.63 30.76 31.78 31.88 30.73 32.22 32.77 32.25 33.92 36.61 39.62 39.73 38.83 39.33 38.97 39.35 36.84 35.92 36.04 35.95 35.75 35.54 34.97 35.74 37.43 38.70 38.81 38.16 37.02 36.42 36.42 35.44 34.17 34.22 34.14 33.99 33.36 35.26 39.04 39.21 39.21 39.14
32.63 31.25 28.09 29.13 28.78 31.31 31.97 33.12 34.49 35.04 36.43 37.86 39.60 39.81 40.99 40.14 39.35 38.16 37.37 36.62 35.77 35.09 34.81 34.05 33.30 32.69 33.71 35.40 36.72 36.17 37.19 38.98 37.02 35.95 34.92 34.47 34.53 33.94 33.87 33.31 32.93 33.38 36.97 38.50
33.41 34.67 34.09 33.32 30.19 30.95 33.95 35.24 34.23 36.62 38.35 39.58 40.33 39.21 40.37 38.93 38.27 37.60 37.66 37.02 36.09 34.69 33.86 33.47 32.83 32.49 33.55 33.88 33.43 33.28 33.59 33.46 34.39 35.71 34.90 35.07 34.07 33.58 33.42 32.95 32.65 32.72 32.91 34.74
33.95 34.45 33.33 31.66 29.22 31.24 34.60 36.65 36.82 37.47 38.28 38.88 37.05 37.57 38.60 37.54 34.99 34.39 34.92 35.32 34.31 32.63 32.34 32.25 32.87 33.15 33.27 33.15 32.78 32.33 32.38 36.25 35.08 32.85 33.88 33.75 33.47 33.08 32.73 32.53 32.45 32.40 32.36 32.58
32.85 31.40 31.52 31.64 30.59 34.00 35.63 36.90 36.65 36.72 37.64 35.86 35.16 35.57 34.80 33.82 33.38 33.02 32.79 32.47 32.79 32.28 30.22 31.06 32.93 34.11 34.47 34.40 34.06 34.59 34.68 34.98 37.34 34.20 33.57 33.41 33.27 32.83 32.87 32.60 32.33 32.31 32.51 33.42
35.05 35.96 35.50 35.33 34.76 35.04 35.46 36.00 35.91 35.90 35.75 36.44 35.92 35.42 34.71 34.24 33.56 32.68 32.48 30.99 30.27 29.43 29.43 30.28 30.81 30.63 30.52 31.72 33.47 34.16 34.14 33.84 33.57 33.82 33.16 32.98 32.86 32.88 32.24 32.15 32.20 31.75 32.25 32.91
34.69 36.13 36.55 36.40 35.78 35.31 35.44 34.66 34.63 35.36 35.06 35.50 35.46 33.72 32.87 31.93 31.98 31.92 31.58 31.09 30.27 28.88 28.41 28.97 30.86 29.38 28.69 30.39 30.33 31.59 32.74 32.58 32.44 32.55 32.67 33.81 32.61 32.39 31.75 31.64 31.60 31.66 31.75 31.84
35.27 37.03 36.67 36.11 36.15 35.09 34.44 34.76 34.76 33.76 33.59 34.30 34.27 32.99 31.77 31.20 31.32 31.43 30.25 29.12 28.79 28.14 29.14 28.71 28.21 27.29 27.42 28.37 30.57 27.50 29.07 30.63 31.03 31.09 31.89 31.15 30.89 30.34 30.25 30.67 30.32 30.24 30.23 30.41
34.82 35.22 35.09 34.98 33.88 32.84 32.33 30.45 30.86 28.99 27.98 27.52 26.04 26.34 26.73 27.70 27.64 27.25 27.06 26.07 27.12 28.76 28.55 29.97 27.43 27.18 27.43 27.80 27.36 25.68 25.80 26.01 26.56 26.61 26.75 27.04 27.47 27.46 26.72 26.35 26.92 27.39 27.95 27.62
32.83 33.47 34.43 33.60 32.02 29.85 28.41 25.05 23.67 24.09 24.21 24.31 24.73 24.44 24.06 24.32 24.95 26.65 28.16 27.86 27.96 31.17 28.24 26.62 25.33 27.64 27.09 27.70 22.18 21.90 21.09 20.77 20.52 20.57 20.33 21.48 21.88 21.31 20.89 20.59 19.91 22.81 21.45 19.79
31.68 30.52 28.25 25.00 23.64 24.82 25.83 23.73 23.43 23.27 23.28 23.36 23.42 23.43 22.81 23.51 23.51 23.75 23.88 27.67 26.93 29.09 26.63 25.16 26.51 29.83 30.17 22.73 20.44 19.50 19.58 19.72 20.65 20.17 18.37 17.16 18.03 16.68 17.25 17.22 18.03 18.59 16.52 17.84
31.94 31.49 30.96 30.26 30.38 30.98 30.12 28.90 26.72 27.22 25.12 24.36 24.87 24.25 23.40 22.25 23.32 24.52 25.26 27.77 29.57 28.08 25.92 24.52 25.84 29.84 30.22 21.75 19.37 18.68 19.09 18.57 17.01 15.04 16.61 21.55 14.14 13.84 13.71 14.39 14.10 15.84 16.29 17.76
31.44 30.87 30.47 29.92 30.19 30.62 30.66 30.57 30.25 29.94 29.41 28.27 27.93 28.43 27.47 24.70 23.76 24.41 24.07 24.46 27.96 27.82 24.18 27.44 29.32 30.03 25.75 22.49 21.68 21.76 22.17 21.44 19.63 19.68 19.38 17.82 16.40 14.85 15.30 16.59 16.51 16.48 16.22 15.75
28.76 29.34 29.29 29.11 28.75 29.07 28.27 27.34 26.53 27.50 27.13 27.23 26.78 27.37 28.39 28.09 24.25 25.84 24.83 25.67 24.20 25.21 24.73 23.73 23.54 24.70 24.48 23.50 23.27 22.63 22.23 21.46 21.32 19.80 19.07 17.43 15.60 13.86 14.32 14.98 15.01 15.01 15.22 13.81
25.57 27.48 25.33 23.26 22.97 23.40 23.54 23.75 22.91 23.59 25.36 24.96 25.18 25.59 26.06 27.36 27.30 27.97 27.60 25.27 25.11 25.37 24.87 24.33 23.96 24.82 23.25 22.59 22.43 22.05 20.97 20.05 21.52 18.75 16.92 14.85 13.18 12.08 14.20 13.74 12.66 12.93 12.88 13.50
MSLP
1017.69 1016.95 1016.33 1015.47 1014.75 1014.45 1014.32 1013.82 1013.87 1012.94 1012.18 1011.37 1010.54 1010.17 1010.09 1010.09 1010.21 1010.51 1010.49 1010.34 1010.65 1011.02 1011.29 1011.37 1011.38 1011.59 1011.76 1012.08 1012.47 1012.85 1013.40 1013.82 1014.30 1014.81 1015.32 1015.94 1016.50 1016.98 1017.24 1017.74 1018.25 1018.65 1019.27 1019.69
1018.34 1017.11 1016.29 1015.64 1014.70 1014.19 1013.83 1013.78 1013.44 1012.96 1012.18 1011.45 1010.57 1010.33 1009.97 1010.42 1010.78 1010.68 1010.57 1010.51 1010.82 1011.07 1011.38 1011.49 1011.48 1011.76 1012.01 1012.13 1012.53 1012.86 1013.30 1013.89 1014.48 1015.03 1015.65 1016.13 1016.63 1017.26 1017.65 1018.14 1018.57 1018.71 1019.46 1019.69
1018.73 1017.30 1016.16 1015.33 1013.74 1013.48 1013.30 1013.24 1013.20 1012.66 1011.83 1011.62 1011.29 1010.81 1010.51 1010.36 1010.61 1010.84 1010.71 1010.66 1011.00 1011.15 1011.27 1011.43 1011.70 1011.89 1011.95 1012.10 1012.39 1012.78 1013.22 1013.89 1014.56 1015.18 1015.73 1016.31 1016.81 1017.31 1017.92 1018.50 1018.70 1018.97 1019.31 1019.43
1019.48 1017.76 1016.55 1014.78 1013.75 1013.32 1013.32 1013.29 1012.95 1013.00 1012.60 1011.96 1011.41 1010.33 1009.76 1009.95 1010.45 1010.58 1010.70 1010.92 1010.99 1011.27 1011.30 1011.45 1011.58 1011.62 1011.75 1011.91 1012.39 1012.72 1013.16 1013.79 1014.39 1014.91 1015.66 1016.39 1016.90 1017.55 1018.08 1018.53 1018.89 1019.08 1019.34 1019.68
1019.63 1018.52 1016.58 1014.75 1014.41 1014.17 1013.98 1014.36 1014.23 1013.69 1012.87 1012.04 1011.05 1010.73 1010.35 1010.07 1010.34 1010.56 1010.69 1010.86 1010.99 1011.21 1011.37 1011.53 1011.56 1011.60 1011.82 1012.07 1012.16 1012.60 1012.89 1013.22 1013.85 1014.69 1015.51 1016.19 1016.81 1017.50 1018.23 1018.76 1019.06 1019.22 1019.49 1019.81
1019.33 1018.85 1017.19 1015.60 1014.48 1014.23 1014.08 1014.67 1014.47 1014.12 1013.57 1012.56 1011.53 1011.43 1010.95 1010.68 1010.57 1010.77 1010.96 1011.09 1011.26 1011.39 1011.48 1011.46 1011.29 1011.39 1011.62 1011.73 1011.99 1012.20 1012.37 1012.78 1013.60 1014.34 1015.00 1015.76 1016.53 1017.40 1018.10 1018.55 1018.85 1019.09 1019.42 1019.77
1019.54 1018.72 1016.82 1015.26 1014.49 1014.11 1014.61 1015.57 1014.91 1014.58 1014.20 1013.67 1013.11 1012.54 1011.52 1011.01 1010.95 1011.13 1011.49 1011.56 1011.73 1011.86 1011.94 1011.72 1011.39 1011.22 1011.24 1011.48 1011.33 1011.42 1012.13 1012.75 1013.47 1014.14 1014.78 1015.44 1016.41 1017.18 1017.85 1018.48 1018.77 1019.13 1019.46 1019.83
1018.86 1018.39 1016.78 1015.35 1014.70 1014.78 1015.41 1015.28 1015.33 1015.28 1014.82 1014.25 1013.55 1012.59 1011.94 1011.68 1011.63 1011.74 1011.89 1011.98 1011.99 1012.13 1012.04 1011.63 1011.18 1010.86 1010.89 1011.12 1011.30 1011.55 1012.12 1012.76 1013.41 1014.12 1014.85 1015.61 1016.38 1017.26 1017.83 1018.24 1018.77 1019.10 1019.28 1019.50
1017.80 1016.64 1015.75 1015.37 1015.26 1015.36 1015.51 1015.73 1015.53 1015.37 1015.07 1014.73 1014.15 1013.45 1012.71 1012.09 1012.04 1012.10 1012.12 1012.22 1012.32 1012.36 1012.30 1011.96 1011.49 1011.00 1010.95 1011.00 1011.21 1011.58 1012.19 1012.90 1013.61 1014.33 1014.95 1015.65 1016.34 1017.08 1017.69 1018.08 1018.37 1018.72 1019.06 1019.44
1017.28 1016.32 1015.92 1015.60 1015.59 1015.54 1015.80 1015.78 1015.51 1015.21 1014.91 1014.50 1014.25 1013.72 1013.07 1012.52 1012.42 1012.49 1012.49 1012.52 1012.67 1012.74 1012.79 1012.61 1012.09 1011.61 1011.32 1011.28 1011.45 1011.82 1012.42 1013.17 1013.82 1014.37 1015.07 1015.68 1016.21 1016.71 1017.20 1017.69 1018.12 1018.53 1018.80 1019.14
1017.12 1016.50 1016.19 1015.99 1016.00 1016.05 1015.96 1015.81 1015.49 1015.01 1014.72 1014.31 1014.14 1013.74 1013.26 1012.77 1012.69 1012.65 1012.73 1012.80 1012.89 1013.17 1013.21 1013.10 1012.69 1012.36 1011.99 1011.77 1011.82 1012.22 1012.69 1013.26 1013.92 1014.48 1015.07 1015.64 1016.06 1016.44 1016.91 1017.18 1017.42 1017.84 1018.15 1018.48
1016.89 1016.68 1016.70 1016.52 1016.39 1016.27 1016.20 1015.85 1015.47 1015.10 1014.53 1014.19 1013.99 1013.57 1013.16 1012.82 1012.84 1012.94 1012.83 1013.08 1013.37 1013.47 1013.48 1013.43 1013.24 1013.15 1012.90 1012.52 1012.32 1012.67 1013.16 1013.62 1014.07 1014.61 1015.14 1015.58 1016.01 1016.47 1016.65 1016.83 1017.05 1017.31 1017.53 1017.90
1016.49 1016.63 1016.61 1016.48 1016.45 1016.23 1016.18 1015.79 1015.19 1014.87 1014.36 1013.92 1013.50 1013.20 1013.07 1012.77 1013.01 1013.30 1013.04 1013.49 1013.74 1013.81 1013.90 1013.83 1013.74 1013.74 1013.57 1013.24 1013.03 1013.16 1013.49 1013.92 1014.29 1014.76 1015.18 1015.59 1015.96 1016.24 1016.54 1016.75 1016.88 1017.09 1017.19 1017.42
1016.24 1016.32 1016.37 1016.32 1016.39 1016.16 1015.96 1015.33 1014.82 1014.29 1013.82 1013.55 1013.20 1012.91 1012.85 1012.86 1013.24 1013.37 1013.16 1013.79 1014.03 1014.31 1014.36 1014.31 1014.28 1014.38 1014.23 1013.88 1013.67 1013.77 1013.93 1014.17 1014.52 1014.87 1015.16 1015.46 1015.72 1015.99 1016.31 1016.55 1016.71 1016.90 1016.94 1016.98
1015.99 1016.06 1016.12 1016.06 1016.07 1015.92 1015.43 1014.91 1014.37 1013.92 1013.49 1013.25 1012.93 1012.88 1012.72 1012.99 1013.31 1013.46 1013.56 1013.91 1014.30 1014.70 1014.85 1014.93 1014.93 1014.98 1014.68 1014.38 1014.32 1014.35 1014.40 1014.48 1014.62 1014.83 1015.06 1015.27 1015.53 1015.85 1016.11 1016.34 1016.56 1016.70 1016.81 1016.76
1015.60 1015.70 1015.75 1015.99 1016.06 1015.76 1015.35 1014.79 1014.28 1013.81 1013.56 1013.23 1013.25 1013.18 1013.16 1013.31 1013.61 1013.92 1014.13 1014.42 1014.70 1015.02 1015.19 1015.27 1015.23 1015.26 1015.13 1014.96 1014.89 1014.86 1014.77 1014.60 1014.66 1014.81 1015.00 1015.25 1015.47 1015.68 1015.90 1016.14 1016.32 1016.47 1016.52 1016.55
1015.42 1015.41 1015.41 1015.58 1015.70 1015.45 1015.12 1014.70 1014.34 1014.07 1013.83 1013.85 1013.82 1013.70 1013.76 1013.92 1014.19 1014.48 1014.75 1015.06 1015.17 1015.26 1015.41 1015.51 1015.47 1015.37 1015.31 1015.18 1015.08 1015.05 1014.93 1014.81 1014.76 1014.86 1014.97 1015.08 1015.28 1015.52 1015.69 1015.89 1016.07 1016.19 1016.23 1016.22
1015.13 1015.14 1015.25 1015.32 1015.46 1015.41 1015.11 1014.81 1014.62 1014.50 1014.33 1014.18 1014.15 1014.27 1014.21 1014.24 1014.56 1014.90 1014.89 1015.23 1015.50 1015.75 1015.71 1015.65 1015.59 1015.61 1015.55 1015.38 1015.21 1015.13 1015.10 1015.03 1015.01 1015.01 1015.06 1015.15 1015.30 1015.47 1015.65 1015.79 1015.90 1016.00 1016.01 1015.97
1014.97 1015.00 1015.12 1015.21 1015.42 1015.46 1015.28 1015.24 1015.15 1015.04 1015.03 1014.85 1014.70 1014.63 1014.74 1014.89 1014.94 1015.15 1015.26 1015.44 1015.51 1015.72 1015.74 1015.79 1015.74 1015.73 1015.68 1015.52 1015.46 1015.37 1015.32 1015.33 1015.37 1015.37 1015.37 1015.39 1015.49 1015.61 1015.72 1015.82 1015.92 1016.02 1016.09 1016.11
1014.89 1014.95 1015.14 1015.36 1015.47 1015.59 1015.66 1015.67 1015.62 1015.52 1015.34 1015.32 1015.29 1015.14 1014.97 1014.95 1015.06 1015.34 1015.46 1015.52 1015.62 1015.68 1015.72 1015.78 1015.83 1015.84 1015.81 1015.70 1015.62 1015.70 1015.61 1015.72 1015.78 1015.77 1015.74 1015.84 1015.95 1016.09 1016.18 1016.26 1016.34 1016.46 1016.51 1016.49
1014.94 1015.10 1015.32 1015.54 1015.74 1015.87 1015.92 1015.94 1015.89 1015.73 1015.60 1015.49 1015.44 1015.38 1015.28 1015.26 1015.36 1015.51 1015.56 1015.67 1015.45 1015.56 1015.59 1015.71 1015.85 1015.87 1015.86 1015.86 1015.91 1015.98 1016.08 1016.18 1016.23 1016.27 1016.31 1016.40 1016.46 1016.59 1016.72 1016.80 1016.83 1016.89 1016.91 1016.90
1015.19 1015.36 1015.52 1015.76 1015.86 1016.05 1016.22 1016.21 1016.06 1015.83 1015.85 1015.82 1015.66 1015.57 1015.61 1015.49 1015.36 1015.35 1015.29 1015.35 1015.35 1015.33 1015.46 1015.68 1015.82 1015.81 1015.88 1016.01 1016.16 1016.31 1016.47 1016.64 1016.62 1016.75 1016.87 1016.98 1017.05 1017.13 1017.20 1017.21 1017.21 1017.22 1017.27 1017.25
1015.29 1015.59 1015.81 1015.94 1016.13 1016.29 1016.28 1016.13 1015.97 1015.99 1015.81 1015.76 1015.70 1015.57 1015.40 1015.38 1015.44 1015.37 1015.08 1014.90 1015.05 1015.17 1015.33 1015.48 1015.60 1015.63 1015.75 1016.13 1016.31 1016.53 1016.71 1016.84 1016.96 1017.16 1017.24 1017.35 1017.42 1017.53 1017.52 1017.54 1017.57 1017.57 1017.55 1017.42
1015.30 1015.58 1015.77 1015.99 1016.04 1016.03 1016.08 1015.87 1015.84 1015.68 1015.76 1015.65 1015.31 1015.33 1015.44 1015.35 1015.09 1014.92 1014.84 1014.86 1014.98 1015.06 1015.09 1015.26 1015.34 1015.43 1015.54 1015.98 1016.30 1016.60 1016.75 1016.85 1017.05 1017.19 1017.20 1017.09 1017.44 1017.56 1017.65 1017.66 1017.67 1017.57 1017.44 1017.33
1015.22 1015.48 1015.71 1015.85 1015.84 1015.79 1015.69 1015.55 1015.62 1015.64 1015.62 1015.49 1015.31 1015.03 1015.02 1015.02 1015.20 1014.76 1014.76 1014.70 1014.74 1014.82 1014.97 1015.00 1015.09 1015.16 1015.35 1015.75 1016.11 1016.33 1016.48 1016.65 1016.76 1016.90 1017.03 1017.20 1017.39 1017.55 1017.57 1017.54 1017.44 1017.33 1017.19 1017.15
1015.54 1015.79 1015.86 1015.89 1015.96 1015.88 1015.95 1016.15 1016.14 1015.98 1015.70 1015.31 1014.85 1014.61 1014.55 1014.54 1014.52 1014.43 1014.50 1014.44 1014.51 1014.59 1014.64 1014.71 1014.92 1014.99 1015.07 1015.31 1015.59 1015.83 1016.02 1016.21 1016.34 1016.55 1016.77 1016.94 1017.12 1017.28 1017.36 1017.36 1017.33 1017.24 1017.11 1017.01
1015.90 1016.00 1016.17 1016.30 1016.17 1016.21 1016.31 1016.28 1016.13 1015.69 1015.38 1015.27 1014.95 1014.56 1014.35 1014.16 1014.15 1014.05 1014.08 1014.11 1014.09 1014.20 1014.37 1014.49 1014.54 1014.57 1014.75 1014.95 1015.13 1015.33 1015.55 1015.76 1016.00 1016.26 1016.44 1016.61 1016.72 1016.80 1016.91 1017.01 1017.06 1017.01 1016.89 1016.76
Wind_Speed
9 10 8 6 9 6 6 4 5 1 9 7 3 3 2 1 4 4 3 4 4 4 4 3 2 2 1 3 5 5 6 6 6 6 7 7 7 6 6 6 6 6 6 5
5 7 9 10 8 11 13 8 10 8 6 5 5 0 3 3 1 2 3 4 6 6 6 5 5 4 3 4 5 5 6 6 6 6 6 6 6 6 6 6 6 7 5 5
5 5 2 4 7 8 3 4 4 9 3 4 12 5 3 4 6 6 6 6 6 6 6 5 6 6 7 6 5 6 6 6 7 7 7 6 6 6 6 6 5 6 5 6
4 5 1 6 5 2 6 5 4 7 8 7 13 18 14 4 5 8 7 7 5 3 3 4 2 3 3 5 6 7 7 7 7 7 7 7 7 6 6 4 5 4 5 4
2 3 6 3 5 4 2 3 7 6 9 13 13 4 5 3 5 5 3 1 1 2 3 4 6 4 4 6 6 6 8 8 8 8 8 8 7 7 4 4 2 3 3 4
3 1 2 1 6 4 4 2 9 9 11 11 3 2 4 4 1 2 5 3 5 6 5 6 5 4 6 6 7 9 8 8 8 8 9 9 8 7 4 3 4 4 4 2
2 2 7 5 9 4 2 2 8 9 8 10 5 4 5 3 3 3 3 5 5 5 5 6 6 4 6 6 10 6 7 7 7 7 8 7 8 4 6 5 5 4 4 3
3 2 6 3 4 2 0 3 2 5 8 9 10 10 4 2 2 3 5 6 5 5 6 6 6 4 4 6 3 6 7 7 8 7 6 7 9 6 6 6 5 5 4 2
8 6 3 1 2 3 3 2 3 3 4 6 9 7 10 4 2 3 4 4 4 4 6 6 6 3 3 4 6 6 7 7 7 7 6 7 8 7 5 5 4 4 3 2
1 1 0 2 1 2 4 3 5 5 5 4 7 10 10 4 1 1 3 4 4 4 5 6 6 5 2 3 4 6 7 7 6 7 7 6 4 5 5 5 4 3 3 3
5 4 3 1 2 2 5 6 7 7 5 5 6 9 7 4 2 2 2 2 4 4 4 5 6 6 6 4 5 6 6 6 6 4 5 5 4 5 4 4 4 4 4 4
6 3 2 5 5 7 8 10 7 7 6 5 5 7 7 4 1 1 4 3 3 3 4 4 6 6 6 6 5 6 5 4 4 4 4 4 4 3 7 6 9 9 7 5
3 2 5 7 6 5 4 10 9 8 8 8 6 4 5 1 2 3 6 5 3 3 3 4 6 6 7 5 5 5 4 4 3 3 3 4 3 4 4 4 8 8 8 10
0 2 3 1 5 7 8 9 9 7 7 6 6 4 4 3 3 1 8 2 3 3 4 5 6 6 6 5 5 5 4 5 3 3 4 3 4 3 3 3 2 2 5 8
3 5 5 5 6 6 7 6 7 7 5 5 4 5 1 4 3 2 4 4 5 4 4 4 4 5 5 5 5 4 2 1 2 3 3 4 3 3 3 3 3 3 2 2
2 4 2 2 6 6 7 8 7 6 6 4 4 4 1 3 4 4 4 2 1 2 3 3 4 4 5 5 5 3 2 1 3 2 3 3 3 3 3 3 3 3 3 3
3 2 1 3 4 6 7 7 5 5 4 5 5 4 4 5 4 4 4 4 3 3 3 2 2 2 3 3 4 2 2 2 1 2 2 2 2 3 3 3 3 2 3 2
3 2 3 3 4 5 6 5 5 5 5 3 2 4 3 3 2 1 3 3 2 1 2 3 3 3 4 4 3 2 2 2 2 1 1 1 1 2 2 2 2 2 2 2
2 1 2 0 2 3 3 4 4 4 4 5 2 2 2 2 2 1 1 1 2 3 1 1 3 3 3 4 3 2 1 2 2 3 2 3 3 3 2 1 1 0 1 1
1 2 1 1 1 1 2 2 2 2 3 3 2 1 1 1 1 1 1 2 3 2 1 1 1 1 2 3 3 2 2 2 2 2 2 3 3 3 3 5 4 3 2 2
1 1 0 0 0 1 2 2 2 2 3 3 2 3 3 2 2 2 2 3 3 3 3 2 1 1 1 1 3 2 2 3 3 2 3 2 3 3 3 4 3 3 3 3
2 1 1 1 1 2 3 4 3 3 3 3 3 3 3 4 3 3 4 4 1 5 3 2 1 2 2 3 2 2 2 2 2 2 2 3 3 2 2 2 2 2 2 2
3 2 1 1 1 3 5 5 4 4 4 4 3 4 3 3 3 3 3 2 3 5 3 3 4 4 3 2 2 2 2 2 2 2 2 1 1 1 0 1 1 2 2 3
3 4 3 3 4 4 5 4 5 5 5 6 5 4 4 3 3 4 4 4 6 6 4 4 5 6 5 3 2 2 2 2 2 1 1 0 1 1 1 1 2 2 2 3
4 3 3 3 4 4 4 3 4 4 5 6 6 5 5 3 4 2 2 3 7 6 3 5 8 8 3 3 3 3 3 3 3 2 2 2 2 2 2 2 2 3 2 2
3 3 4 4 4 5 4 4 5 6 5 6 4 4 4 3 3 4 3 5 3 5 3 3 3 4 3 4 4 4 3 3 3 2 3 3 3 2 2 2 3 3 3 3
4 5 3 3 3 3 3 4 4 5 4 4 5 4 4 4 4 5 6 3 4 4 3 3 3 5 4 4 4 4 3 3 5 3 3 3 2 3 3 3 3 3 3 3
Wind_Direction
263 267 265 259 268 287 273 260 219 205 211 249 256 232 221 207 124 111 31 341 300 298 312 302 318 341 129 164 160 154 152 152 160 146 136 131 125 123 114 116 115 116 111 107
290 260 234 259 259 258 253 263 259 261 284 270 312 49 109 132 337 353 336 316 297 281 261 253 253 247 231 207 185 161 161 166 148 139 139 141 134 136 124 118 128 115 126 130
284 346 326 320 241 216 236 189 245 240 263 14 307 307 280 241 233 249 284 292 283 291 295 278 237 221 226 203 172 170 165 160 159 155 149 152 141 134 135 139 128 128 123 105
296 315 315 246 1 305 242 301 239 276 273 247 233 264 271 226 236 260 255 263 269 280 299 313 298 253 225 185 186 173 171 169 162 155 153 151 143 144 131 134 138 127 114 108
20 296 287 76 5 356 359 99 18 319 310 294 258 257 297 258 199 240 236 304 286 286 289 285 285 289 212 196 178 175 186 177 168 160 154 152 153 148 133 122 105 107 130 129
17 318 250 186 289 226 211 273 358 352 341 339 28 123 267 335 33 5 13 3 338 332 316 307 301 288 216 205 182 197 187 172 158 159 159 164 154 145 138 138 140 134 120 159
289 250 280 264 299 305 96 246 339 348 350 350 360 318 308 348 18 23 351 336 341 331 301 294 295 276 236 198 208 190 144 147 151 157 160 152 138 135 139 142 124 134 157 195
141 233 292 352 332 43 349 326 358 336 359 347 333 318 316 332 331 342 345 338 349 335 324 323 314 278 226 217 152 149 145 150 151 147 142 138 142 137 139 140 154 172 168 199
179 216 227 132 158 136 137 256 289 298 322 340 344 328 317 283 299 329 358 347 342 341 337 346 339 324 204 206 165 150 141 144 140 132 129 136 145 149 147 158 161 174 174 201
339 285 342 289 169 100 25 299 293 272 277 325 330 328 314 295 275 332 354 9 358 7 8 360 357 16 12 129 146 134 131 134 136 138 138 142 137 153 152 165 169 183 180 209
267 285 295 205 150 25 329 318 311 289 284 312 317 318 304 281 213 157 104 31 38 35 36 14 13 24 25 66 112 107 112 119 130 136 145 147 148 164 168 182 178 181 200 199
220 202 180 254 323 310 311 305 297 288 300 275 264 297 313 290 288 328 96 61 51 45 59 50 50 34 23 29 84 109 109 118 138 139 141 142 147 147 205 205 212 220 212 201
168 167 221 256 280 279 299 303 289 286 276 281 284 302 300 245 46 97 78 60 51 58 65 55 47 42 15 23 63 81 105 121 125 141 148 158 162 172 186 229 236 238 238 244
215 274 300 246 281 310 303 286 291 277 262 267 274 301 283 127 129 203 78 50 83 91 70 61 56 37 3 13 47 67 85 142 154 166 173 170 177 182 181 192 203 241 252 250
209 210 248 301 328 315 293 297 313 317 328 303 301 280 243 166 165 101 112 107 89 80 64 58 58 29 5 21 45 49 66 92 147 166 183 192 180 182 188 191 212 226 239 262
274 261 230 325 304 309 307 306 311 323 325 325 350 5 65 111 96 68 59 71 141 102 56 57 53 18 13 25 31 38 25 258 181 176 176 178 187 188 186 205 214 223 227 235
198 244 162 305 316 329 320 331 354 354 360 23 23 35 82 90 86 74 62 50 71 81 74 78 44 34 13 26 36 23 8 353 354 162 184 188 193 200 205 206 218 226 238 235
193 239 253 262 303 325 325 341 1 6 8 2 21 18 43 61 74 109 111 99 75 24 20 18 22 26 13 3 36 31 7 5 2 45 72 124 183 193 191 189 209 228 254 263
178 247 269 315 15 324 322 344 346 355 357 349 16 47 76 73 58 39 75 196 241 285 299 358 29 35 18 357 37 9 18 20 38 43 46 60 69 76 84 98 96 318 308 325
184 111 69 62 72 334 329 343 349 9 8 349 339 342 69 113 129 235 220 242 243 246 219 242 31 24 359 347 44 20 19 62 60 51 74 72 75 68 65 62 67 55 41 36
138 118 102 105 234 278 276 287 313 319 325 340 323 311 305 293 262 278 261 271 257 212 193 182 183 334 341 38 58 65 61 68 66 66 68 60 66 61 56 39 32 24 25 20
129 103 117 138 256 306 346 314 288 283 288 291 284 283 291 274 240 243 232 224 229 208 174 191 217 266 189 95 84 92 94 93 93 75 62 54 56 50 35 25 6 357 352 330
162 160 60 13 10 324 307 293 276 276 280 278 278 275 259 264 267 254 275 226 196 211 190 201 222 245 178 122 119 126 130 119 111 105 113 114 106 115 139 314 301 326 318 311
162 182 215 231 245 259 280 282 270 274 272 278 268 267 267 286 281 229 246 262 239 223 204 215 226 235 191 155 158 171 180 152 149 167 185 201 173 196 220 248 273 260 267 311
181 197 204 225 245 260 268 277 306 293 296 283 277 264 253 242 227 280 237 233 241 235 221 247 240 235 181 177 188 196 198 197 191 198 201 205 226 235 256 276 276 274 254 266
191 226 254 265 280 282 296 320 292 293 293 290 278 253 258 239 251 250 242 251 232 255 246 229 234 246 197 195 199 204 197 203 199 185 198 205 206 220 235 261 267 274 278 272
231 241 248 270 251 237 243 248 262 271 278 280 283 277 271 265 246 246 245 230 218 215 229 244 232 235 209 210 206 201 195 197 203 196 208 213 206 214 219 234 246 256 259 264